Time,TemperatureF,DewpointF,PressureIn,WindDirection,WindDirectionDegrees,WindSpeedMPH,WindSpeedGustMPH,Humidity,HourlyPrecipIn,Conditions,Clouds,dailyrainin,SoftwareType,DateUTC
2013-01-30 00:05:00,60.1,54.6,30.04,SSW,192,0.0,0.0,82,0.00,,,0.00,Wunderground v.1.15,2013-01-30 05:05:00,
2013-01-30 00:10:00,60.0,54.5,30.04,SSW,192,0.0,0.0,82,0.00,,,0.00,Wunderground v.1.15,2013-01-30 05:10:00,
2013-01-30 00:20:00,59.5,54.3,30.04,SSW,192,0.0,0.0,83,0.00,,,0.00,Wunderground v.1.15,2013-01-30 05:20:00,
2013-01-30 00:25:00,59.4,54.6,30.03,SSW,192,0.0,0.0,84,0.00,,,0.00,Wunderground v.1.15,2013-01-30 05:25:00,
2013-01-30 00:30:00,59.4,54.6,30.02,South,178,0.0,1.0,84,0.00,,,0.00,Wunderground v.1.15,2013-01-30 05:30:00,
2013-01-30 00:35:00,59.7,54.5,30.02,South,177,1.0,1.0,83,0.00,,,0.00,Wunderground v.1.15,2013-01-30 05:35:00,
2013-01-30 00:40:00,59.8,54.6,30.02,South,180,1.0,1.0,83,0.00,,,0.00,Wunderground v.1.15,2013-01-30 05:40:00,
2013-01-30 00:45:00,60.0,54.8,30.02,SSE,161,1.0,1.0,83,0.00,,,0.00,Wunderground v.1.15,2013-01-30 05:45:00,
2013-01-30 00:50:00,60.3,55.1,30.02,SSW,202,1.0,4.0,83,0.00,,,0.00,Wunderground v.1.15,2013-01-30 05:50:00,
2013-01-30 01:00:00,60.5,55.3,30.01,SSE,163,2.0,2.0,83,0.00,,,0.00,Wunderground v.1.15,2013-01-30 06:00:00,
2013-01-30 01:05:00,60.6,55.4,30.01,SSE,161,2.0,2.0,83,0.00,,,0.00,Wunderground v.1.15,2013-01-30 06:05:00,
2013-01-30 01:10:00,60.6,55.7,30.01,SSW,200,2.0,2.0,84,0.00,,,0.00,Wunderground v.1.15,2013-01-30 06:10:00,
2013-01-30 01:15:00,60.6,55.7,30.01,South,189,2.0,2.0,84,0.00,,,0.00,Wunderground v.1.15,2013-01-30 06:15:00,
2013-01-30 01:20:00,60.5,55.6,30.01,South,189,2.0,3.0,84,0.00,,,0.00,Wunderground v.1.15,2013-01-30 06:20:00,
2013-01-30 01:30:00,60.8,56.3,30.01,SSW,196,3.0,7.0,85,0.00,,,0.00,Wunderground v.1.15,2013-01-30 06:30:00,
2013-01-30 01:35:00,60.9,56.4,30.01,SW,217,4.0,7.0,85,0.00,,,0.00,Wunderground v.1.15,2013-01-30 06:35:00,
2013-01-30 01:40:00,61.2,57.0,30.01,South,186,4.0,4.0,86,0.00,,,0.00,Wunderground v.1.15,2013-01-30 06:40:00,
2013-01-30 01:45:00,61.4,56.8,30.00,SSW,204,4.0,4.0,85,0.00,,,0.00,Wunderground v.1.15,2013-01-30 06:45:00,
2013-01-30 01:50:00,61.4,57.2,30.00,SSW,195,3.0,3.0,86,0.00,,,0.00,Wunderground v.1.15,2013-01-30 06:50:00,
2013-01-30 01:55:00,61.6,57.4,30.00,SW,219,5.0,6.0,86,0.00,,,0.00,Wunderground v.1.15,2013-01-30 06:55:00,
2013-01-30 02:00:00,61.7,57.1,29.99,South,190,5.0,6.0,85,0.00,,,0.00,Wunderground v.1.15,2013-01-30 07:00:00,
2013-01-30 02:05:00,61.7,57.1,29.99,SSW,213,4.0,6.0,85,0.00,,,0.00,Wunderground v.1.15,2013-01-30 07:05:00,
2013-01-30 02:10:00,61.7,57.5,29.99,SSW,211,4.0,4.0,86,0.00,,,0.00,Wunderground v.1.15,2013-01-30 07:10:00,
2013-01-30 02:15:00,61.9,57.7,29.99,SSW,207,4.0,6.0,86,0.00,,,0.00,Wunderground v.1.15,2013-01-30 07:15:00,
2013-01-30 02:20:00,61.9,57.3,29.98,SSE,166,3.0,3.0,85,0.00,,,0.00,Wunderground v.1.15,2013-01-30 07:20:00,
2013-01-30 02:25:00,61.7,57.5,29.98,South,191,3.0,6.0,86,0.00,,,0.00,Wunderground v.1.15,2013-01-30 07:25:00,
2013-01-30 02:30:00,61.9,57.3,29.98,SSE,167,4.0,4.0,85,0.00,,,0.00,Wunderground v.1.15,2013-01-30 07:30:00,
2013-01-30 02:35:00,61.7,57.1,29.98,South,176,3.0,4.0,85,0.00,,,0.00,Wunderground v.1.15,2013-01-30 07:35:00,
2013-01-30 02:40:00,61.6,57.4,29.98,South,171,3.0,3.0,86,0.00,,,0.00,Wunderground v.1.15,2013-01-30 07:40:00,
2013-01-30 02:45:00,61.6,57.0,29.98,SSW,197,2.0,3.0,85,0.00,,,0.00,Wunderground v.1.15,2013-01-30 07:45:00,
2013-01-30 02:50:00,61.4,56.8,29.98,South,169,2.0,2.0,85,0.00,,,0.00,Wunderground v.1.15,2013-01-30 07:50:00,
2013-01-30 02:55:00,61.4,57.2,29.98,SSE,156,2.0,2.0,86,0.00,,,0.00,Wunderground v.1.15,2013-01-30 07:55:00,
2013-01-30 03:00:00,61.2,57.0,29.98,SSE,165,2.0,2.0,86,0.00,,,0.00,Wunderground v.1.15,2013-01-30 08:00:00,
2013-01-30 03:05:00,61.4,57.2,29.98,South,172,2.0,2.0,86,0.00,,,0.00,Wunderground v.1.15,2013-01-30 08:05:00,
2013-01-30 03:10:00,61.2,57.0,29.97,SSW,202,2.0,2.0,86,0.00,,,0.00,Wunderground v.1.15,2013-01-30 08:10:00,
2013-01-30 03:15:00,61.4,57.2,29.97,SSW,196,3.0,6.0,86,0.00,,,0.00,Wunderground v.1.15,2013-01-30 08:15:00,
2013-01-30 03:20:00,61.4,57.2,29.97,SSE,165,4.0,4.0,86,0.00,,,0.00,Wunderground v.1.15,2013-01-30 08:20:00,
2013-01-30 03:25:00,61.4,57.2,29.97,SE,143,3.0,4.0,86,0.00,,,0.00,Wunderground v.1.15,2013-01-30 08:25:00,
2013-01-30 03:30:00,61.6,57.4,29.96,SSW,202,4.0,7.0,86,0.00,,,0.00,Wunderground v.1.15,2013-01-30 08:30:00,
2013-01-30 03:40:00,61.7,57.5,29.95,South,189,4.0,4.0,86,0.00,,,0.00,Wunderground v.1.15,2013-01-30 08:40:00,
2013-01-30 03:45:00,61.7,57.5,29.95,SSW,198,3.0,5.0,86,0.00,,,0.00,Wunderground v.1.15,2013-01-30 08:45:00,
2013-01-30 03:50:00,61.7,57.5,29.95,SSW,204,5.0,7.0,86,0.00,,,0.00,Wunderground v.1.15,2013-01-30 08:50:00,
2013-01-30 03:55:00,61.6,57.4,29.95,South,190,4.0,7.0,86,0.00,,,0.00,Wunderground v.1.15,2013-01-30 08:55:00,
2013-01-30 04:00:00,61.6,57.7,29.95,South,187,3.0,5.0,87,0.00,,,0.00,Wunderground v.1.15,2013-01-30 09:00:00,
2013-01-30 04:05:00,61.6,57.7,29.95,South,184,4.0,5.0,87,0.00,,,0.00,Wunderground v.1.15,2013-01-30 09:05:00,
2013-01-30 04:10:00,61.6,57.7,29.95,South,174,4.0,5.0,87,0.00,,,0.00,Wunderground v.1.15,2013-01-30 09:10:00,
2013-01-30 04:15:00,61.7,57.5,29.94,SSE,158,3.0,5.0,86,0.00,,,0.00,Wunderground v.1.15,2013-01-30 09:15:00,
2013-01-30 04:20:00,61.7,57.5,29.94,SSW,195,4.0,6.0,86,0.00,,,0.00,Wunderground v.1.15,2013-01-30 09:20:00,
2013-01-30 04:30:00,61.9,57.7,29.94,SSE,157,4.0,5.0,86,0.00,,,0.00,Wunderground v.1.15,2013-01-30 09:30:00,
2013-01-30 04:40:00,61.9,57.7,29.93,SSW,193,5.0,5.0,86,0.00,,,0.00,Wunderground v.1.15,2013-01-30 09:40:00,
2013-01-30 04:50:00,62.2,58.0,29.92,South,179,5.0,5.0,86,0.00,,,0.00,Wunderground v.1.15,2013-01-30 09:50:00,
2013-01-30 04:55:00,62.2,58.0,29.92,SSE,159,5.0,5.0,86,0.00,,,0.00,Wunderground v.1.15,2013-01-30 09:55:00,
2013-01-30 05:00:00,62.2,58.0,29.92,South,179,5.0,5.0,86,0.00,,,0.00,Wunderground v.1.15,2013-01-30 10:00:00,
2013-01-30 05:05:00,62.2,58.0,29.92,SSW,196,4.0,7.0,86,0.00,,,0.00,Wunderground v.1.15,2013-01-30 10:05:00,
2013-01-30 05:10:00,62.4,58.2,29.91,SSE,167,4.0,4.0,86,0.00,,,0.00,Wunderground v.1.15,2013-01-30 10:10:00,
2013-01-30 05:20:00,62.4,58.2,29.91,SE,141,5.0,5.0,86,0.00,,,0.00,Wunderground v.1.15,2013-01-30 10:20:00,
2013-01-30 05:25:00,62.5,58.3,29.90,SSE,152,6.0,7.0,86,0.00,,,0.00,Wunderground v.1.15,2013-01-30 10:25:00,
2013-01-30 05:30:00,62.5,58.3,29.90,SE,130,6.0,10.0,86,0.00,,,0.00,Wunderground v.1.15,2013-01-30 10:30:00,
2013-01-30 05:35:00,62.5,57.9,29.90,SSE,158,6.0,10.0,85,0.00,,,0.00,Wunderground v.1.15,2013-01-30 10:35:00,
2013-01-30 05:40:00,62.5,57.9,29.90,SE,142,6.0,7.0,85,0.00,,,0.00,Wunderground v.1.15,2013-01-30 10:40:00,
2013-01-30 05:45:00,62.7,58.1,29.90,SSE,161,6.0,7.0,85,0.00,,,0.00,Wunderground v.1.15,2013-01-30 10:45:00,
2013-01-30 05:50:00,62.7,58.1,29.90,SSW,199,6.0,6.0,85,0.00,,,0.00,Wunderground v.1.15,2013-01-30 10:50:00,
2013-01-30 06:00:00,62.7,58.1,29.90,SSE,160,5.0,5.0,85,0.00,,,0.00,Wunderground v.1.15,2013-01-30 11:00:00,
2013-01-30 06:05:00,62.8,58.2,29.90,South,180,5.0,5.0,85,0.00,,,0.00,Wunderground v.1.15,2013-01-30 11:05:00,
2013-01-30 06:10:00,62.8,57.9,29.90,SSW,194,5.0,5.0,84,0.00,,,0.00,Wunderground v.1.15,2013-01-30 11:10:00,
2013-01-30 06:15:00,62.8,58.2,29.90,SSW,206,5.0,7.0,85,0.00,,,0.00,Wunderground v.1.15,2013-01-30 11:15:00,
2013-01-30 06:20:00,63.0,58.1,29.90,South,173,5.0,5.0,84,0.00,,,0.00,Wunderground v.1.15,2013-01-30 11:20:00,
2013-01-30 06:25:00,62.8,57.9,29.90,SSW,213,5.0,5.0,84,0.00,,,0.00,Wunderground v.1.15,2013-01-30 11:25:00,
2013-01-30 06:30:00,63.0,58.1,29.90,SSW,205,4.0,6.0,84,0.00,,,0.00,Wunderground v.1.15,2013-01-30 11:30:00,
2013-01-30 06:35:00,63.0,58.1,29.91,South,171,4.0,6.0,84,0.00,,,0.00,Wunderground v.1.15,2013-01-30 11:35:00,
2013-01-30 06:40:00,63.0,58.1,29.91,South,181,3.0,4.0,84,0.00,,,0.00,Wunderground v.1.15,2013-01-30 11:40:00,
2013-01-30 06:45:00,63.0,58.1,29.90,SSE,148,3.0,5.0,84,0.00,,,0.00,Wunderground v.1.15,2013-01-30 11:45:00,
2013-01-30 06:55:00,63.3,58.4,29.90,SSW,199,4.0,7.0,84,0.00,,,0.00,Wunderground v.1.15,2013-01-30 11:55:00,
2013-01-30 07:00:00,63.3,58.4,29.89,SSE,148,4.0,4.0,84,0.00,,,0.00,Wunderground v.1.15,2013-01-30 12:00:00,
2013-01-30 07:05:00,63.3,58.4,29.89,SSW,194,4.0,4.0,84,0.00,,,0.00,Wunderground v.1.15,2013-01-30 12:05:00,
2013-01-30 07:10:00,63.7,58.4,29.89,SE,141,5.0,7.0,83,0.00,,,0.00,Wunderground v.1.15,2013-01-30 12:10:00,
2013-01-30 07:15:00,63.7,58.4,29.89,South,170,4.0,7.0,83,0.00,,,0.00,Wunderground v.1.15,2013-01-30 12:15:00,
2013-01-30 07:20:00,63.8,58.5,29.89,WNW,287,5.0,10.0,83,0.00,,,0.00,Wunderground v.1.15,2013-01-30 12:20:00,
2013-01-30 07:25:00,64.0,58.7,29.89,SSE,162,6.0,10.0,83,0.00,,,0.00,Wunderground v.1.15,2013-01-30 12:25:00,
2013-01-30 07:30:00,64.0,58.7,29.88,South,188,6.0,6.0,83,0.00,,,0.00,Wunderground v.1.15,2013-01-30 12:30:00,
2013-01-30 07:35:00,64.0,58.7,29.89,South,189,5.0,6.0,83,0.00,,,0.00,Wunderground v.1.15,2013-01-30 12:35:00,
2013-01-30 07:45:00,64.0,58.7,29.88,SSE,158,5.0,5.0,83,0.00,,,0.00,Wunderground v.1.15,2013-01-30 12:45:00,
2013-01-30 07:50:00,63.8,58.5,29.88,South,182,4.0,5.0,83,0.00,,,0.00,Wunderground v.1.15,2013-01-30 12:50:00,
2013-01-30 07:55:00,64.0,58.7,29.88,SSW,196,5.0,5.0,83,0.00,,,0.00,Wunderground v.1.15,2013-01-30 12:55:00,
2013-01-30 08:00:00,64.0,58.7,29.88,SSW,199,5.0,7.0,83,0.00,,,0.00,Wunderground v.1.15,2013-01-30 13:00:00,
2013-01-30 08:10:00,64.1,58.8,29.86,SE,146,6.0,6.0,83,0.00,,,0.00,Wunderground v.1.15,2013-01-30 13:10:00,
2013-01-30 08:15:00,64.1,58.8,29.86,SSE,164,5.0,7.0,83,0.00,,,0.00,Wunderground v.1.15,2013-01-30 13:15:00,
2013-01-30 08:20:00,64.1,59.2,29.86,SSE,162,4.0,4.0,84,0.00,,,0.00,Wunderground v.1.15,2013-01-30 13:20:00,
2013-01-30 08:25:00,64.1,59.2,29.86,South,190,6.0,11.0,84,0.00,,,0.00,Wunderground v.1.15,2013-01-30 13:25:00,
2013-01-30 08:30:00,64.3,59.0,29.86,SE,142,6.0,6.0,83,0.00,,,0.00,Wunderground v.1.15,2013-01-30 13:30:00,
2013-01-30 08:35:00,64.3,59.4,29.86,SSW,205,6.0,6.0,84,0.00,,,0.00,Wunderground v.1.15,2013-01-30 13:35:00,
2013-01-30 08:40:00,64.5,59.2,29.85,South,182,6.0,6.0,83,0.00,,,0.00,Wunderground v.1.15,2013-01-30 13:40:00,
2013-01-30 08:50:00,64.6,59.3,29.85,South,178,5.0,6.0,83,0.00,,,0.00,Wunderground v.1.15,2013-01-30 13:50:00,
2013-01-30 08:55:00,64.8,59.5,29.85,ESE,119,6.0,6.0,83,0.00,,,0.00,Wunderground v.1.15,2013-01-30 13:55:00,
2013-01-30 09:00:00,64.6,59.3,29.84,SSW,194,6.0,6.0,83,0.00,,,0.00,Wunderground v.1.15,2013-01-30 14:00:00,
2013-01-30 09:05:00,64.6,59.3,29.84,SSW,196,6.0,11.0,83,0.00,,,0.00,Wunderground v.1.15,2013-01-30 14:05:00,
2013-01-30 09:10:00,64.6,59.3,29.84,SSW,196,5.0,6.0,83,0.00,,,0.00,Wunderground v.1.15,2013-01-30 14:10:00,
2013-01-30 09:15:00,64.8,59.5,29.84,SSW,207,6.0,6.0,83,0.00,,,0.00,Wunderground v.1.15,2013-01-30 14:15:00,
2013-01-30 09:20:00,64.6,59.7,29.84,South,171,6.0,6.0,84,0.00,,,0.00,Wunderground v.1.15,2013-01-30 14:20:00,
2013-01-30 09:25:00,64.6,59.7,29.84,South,169,6.0,7.0,84,0.00,,,0.00,Wunderground v.1.15,2013-01-30 14:25:00,
2013-01-30 09:30:00,64.6,59.7,29.84,South,186,6.0,15.0,84,0.00,,,0.00,Wunderground v.1.15,2013-01-30 14:30:00,
2013-01-30 09:40:00,64.6,60.0,29.84,SSW,194,7.0,8.0,85,0.00,,,0.00,Wunderground v.1.15,2013-01-30 14:40:00,
2013-01-30 09:45:00,64.6,60.0,29.84,SSE,154,7.0,8.0,85,0.00,,,0.00,Wunderground v.1.15,2013-01-30 14:45:00,
2013-01-30 09:50:00,64.6,60.0,29.84,South,188,7.0,7.0,85,0.00,,,0.00,Wunderground v.1.15,2013-01-30 14:50:00,
2013-01-30 09:55:00,64.6,60.0,29.84,SE,132,7.0,7.0,85,0.00,,,0.00,Wunderground v.1.15,2013-01-30 14:55:00,
2013-01-30 10:00:00,64.6,60.0,29.84,South,185,7.0,7.0,85,0.00,,,0.00,Wunderground v.1.15,2013-01-30 15:00:00,
2013-01-30 10:10:00,64.5,60.2,29.84,SSW,204,7.0,7.0,86,0.00,,,0.00,Wunderground v.1.15,2013-01-30 15:10:00,
2013-01-30 10:15:00,64.3,60.3,29.84,SSE,166,6.0,7.0,87,0.00,,,0.00,Wunderground v.1.15,2013-01-30 15:15:00,
2013-01-30 10:20:00,64.3,60.3,29.84,SSE,158,5.0,7.0,87,0.00,,,0.00,Wunderground v.1.15,2013-01-30 15:20:00,
2013-01-30 10:30:00,64.1,60.5,29.83,SSW,192,6.0,11.0,88,0.00,,,0.00,Wunderground v.1.15,2013-01-30 15:30:00,
2013-01-30 10:35:00,64.0,60.4,29.83,SSW,212,6.0,11.0,88,0.00,,,0.00,Wunderground v.1.15,2013-01-30 15:35:00,
2013-01-30 10:40:00,64.0,60.7,29.83,SSE,160,6.0,6.0,89,0.00,,,0.00,Wunderground v.1.15,2013-01-30 15:40:00,
2013-01-30 10:45:00,64.0,60.7,29.83,SSW,200,5.0,6.0,89,0.00,,,0.00,Wunderground v.1.15,2013-01-30 15:45:00,
2013-01-30 10:50:00,64.0,60.7,29.83,SSE,165,5.0,5.0,89,0.00,,,0.00,Wunderground v.1.15,2013-01-30 15:50:00,
2013-01-30 11:00:00,64.1,60.5,29.82,South,176,5.0,10.0,88,0.00,,,0.00,Wunderground v.1.15,2013-01-30 16:00:00,
2013-01-30 11:10:00,64.3,60.7,29.81,SE,136,5.0,5.0,88,0.00,,,0.00,Wunderground v.1.15,2013-01-30 16:10:00,
2013-01-30 11:15:00,64.5,60.5,29.80,South,184,5.0,5.0,87,0.00,,,0.00,Wunderground v.1.15,2013-01-30 16:15:00,
2013-01-30 11:20:00,64.6,60.6,29.80,SSE,161,5.0,5.0,87,0.00,,,0.00,Wunderground v.1.15,2013-01-30 16:20:00,
2013-01-30 11:25:00,64.6,60.6,29.79,South,171,5.0,5.0,87,0.00,,,0.00,Wunderground v.1.15,2013-01-30 16:25:00,
2013-01-30 11:30:00,64.6,60.6,29.79,SSE,148,5.0,6.0,87,0.00,,,0.00,Wunderground v.1.15,2013-01-30 16:30:00,
2013-01-30 11:35:00,64.8,60.8,29.79,South,180,4.0,6.0,87,0.00,,,0.00,Wunderground v.1.15,2013-01-30 16:35:00,
2013-01-30 11:40:00,64.8,60.8,29.79,SSW,206,5.0,8.0,87,0.00,,,0.00,Wunderground v.1.15,2013-01-30 16:40:00,
2013-01-30 11:45:00,64.8,60.5,29.78,SW,224,6.0,8.0,86,0.00,,,0.00,Wunderground v.1.15,2013-01-30 16:45:00,
2013-01-30 11:50:00,64.8,60.5,29.78,South,171,5.0,6.0,86,0.00,,,0.00,Wunderground v.1.15,2013-01-30 16:50:00,
2013-01-30 12:00:00,64.8,60.8,29.76,SSE,163,6.0,6.0,87,0.00,,,0.00,Wunderground v.1.15,2013-01-30 17:00:00,
2013-01-30 12:05:00,64.8,60.8,29.76,SSE,165,5.0,6.0,87,0.00,,,0.00,Wunderground v.1.15,2013-01-30 17:05:00,
2013-01-30 12:10:00,64.6,61.0,29.76,SW,214,5.0,5.0,88,0.00,,,0.00,Wunderground v.1.15,2013-01-30 17:10:00,
2013-01-30 12:15:00,64.3,61.0,29.76,South,182,5.0,5.0,89,0.00,,,0.01,Wunderground v.1.15,2013-01-30 17:15:00,
2013-01-30 12:20:00,64.1,61.1,29.76,SSW,198,6.0,7.0,90,0.00,,,0.01,Wunderground v.1.15,2013-01-30 17:20:00,
2013-01-30 12:25:00,64.0,61.3,29.76,SSW,195,6.0,7.0,91,0.06,,,0.02,Wunderground v.1.15,2013-01-30 17:25:00,
2013-01-30 12:30:00,64.0,61.6,29.76,SSW,204,5.0,9.0,92,0.06,,,0.02,Wunderground v.1.15,2013-01-30 17:30:00,
2013-01-30 12:35:00,63.8,61.4,29.76,SSE,167,4.0,9.0,92,0.05,,,0.03,Wunderground v.1.15,2013-01-30 17:35:00,
2013-01-30 12:40:00,63.8,61.7,29.75,South,180,5.0,5.0,93,0.05,,,0.03,Wunderground v.1.15,2013-01-30 17:40:00,
2013-01-30 12:45:00,63.8,61.7,29.75,South,172,4.0,5.0,93,0.05,,,0.03,Wunderground v.1.15,2013-01-30 17:45:00,
2013-01-30 12:50:00,63.8,61.7,29.75,South,189,4.0,4.0,93,0.00,,,0.03,Wunderground v.1.15,2013-01-30 17:50:00,
2013-01-30 12:55:00,63.8,61.4,29.74,SSE,163,5.0,5.0,92,0.00,,,0.03,Wunderground v.1.15,2013-01-30 17:55:00,
2013-01-30 13:00:00,64.0,61.9,29.74,South,172,5.0,5.0,93,0.00,,,0.03,Wunderground v.1.15,2013-01-30 18:00:00,
2013-01-30 13:05:00,64.0,61.6,29.73,SSE,160,4.0,5.0,92,0.00,,,0.03,Wunderground v.1.15,2013-01-30 18:05:00,
2013-01-30 13:10:00,64.0,61.6,29.73,South,188,4.0,4.0,92,0.00,,,0.03,Wunderground v.1.15,2013-01-30 18:10:00,
2013-01-30 13:15:00,64.0,61.6,29.72,SSW,208,5.0,8.0,92,0.00,,,0.03,Wunderground v.1.15,2013-01-30 18:15:00,
2013-01-30 13:20:00,64.0,61.6,29.71,South,182,4.0,4.0,92,0.00,,,0.03,Wunderground v.1.15,2013-01-30 18:20:00,
2013-01-30 13:25:00,64.1,61.4,29.71,ESE,114,4.0,6.0,91,0.00,,,0.03,Wunderground v.1.15,2013-01-30 18:25:00,
2013-01-30 13:30:00,64.3,61.6,29.71,SSE,161,4.0,6.0,91,0.00,,,0.03,Wunderground v.1.15,2013-01-30 18:30:00,
2013-01-30 13:40:00,64.6,61.3,29.69,SSE,150,5.0,6.0,89,0.00,,,0.03,Wunderground v.1.15,2013-01-30 18:40:00,
2013-01-30 13:45:00,64.8,61.2,29.69,SSE,155,5.0,6.0,88,0.00,,,0.03,Wunderground v.1.15,2013-01-30 18:45:00,
2013-01-30 13:50:00,65.1,61.1,29.68,SE,124,5.0,5.0,87,0.00,,,0.03,Wunderground v.1.15,2013-01-30 18:50:00,
2013-01-30 13:55:00,65.3,61.0,29.68,South,176,5.0,6.0,86,0.00,,,0.03,Wunderground v.1.15,2013-01-30 18:55:00,
2013-01-30 14:00:00,65.6,60.6,29.67,SSE,159,6.0,6.0,84,0.00,,,0.03,Wunderground v.1.15,2013-01-30 19:00:00,
2013-01-30 14:10:00,66.3,60.6,29.67,SE,144,6.0,6.0,82,0.00,,,0.03,Wunderground v.1.15,2013-01-30 19:10:00,
2013-01-30 14:15:00,66.6,60.6,29.66,South,180,6.0,6.0,81,0.00,,,0.03,Wunderground v.1.15,2013-01-30 19:15:00,
2013-01-30 14:20:00,66.9,60.5,29.66,SE,142,6.0,6.0,80,0.00,,,0.03,Wunderground v.1.15,2013-01-30 19:20:00,
2013-01-30 14:30:00,67.6,60.1,29.65,SSE,163,7.0,7.0,77,0.00,,,0.03,Wunderground v.1.15,2013-01-30 19:30:00,
2013-01-30 14:35:00,67.9,60.1,29.64,SSE,150,7.0,7.0,76,0.00,,,0.03,Wunderground v.1.15,2013-01-30 19:35:00,
2013-01-30 14:40:00,68.1,60.2,29.64,SE,137,6.0,7.0,76,0.00,,,0.03,Wunderground v.1.15,2013-01-30 19:40:00,
2013-01-30 14:45:00,68.4,59.8,29.64,SSE,152,6.0,12.0,74,0.00,,,0.03,Wunderground v.1.15,2013-01-30 19:45:00,
2013-01-30 14:50:00,68.6,60.0,29.64,SSE,154,7.0,8.0,74,0.00,,,0.03,Wunderground v.1.15,2013-01-30 19:50:00,
2013-01-30 15:00:00,68.8,59.4,29.64,South,169,7.0,7.0,72,0.00,,,0.03,Wunderground v.1.15,2013-01-30 20:00:00,
2013-01-30 15:05:00,68.9,59.5,29.63,SSW,200,6.0,7.0,72,0.00,,,0.03,Wunderground v.1.15,2013-01-30 20:05:00,
2013-01-30 15:10:00,68.9,59.5,29.63,SSE,155,6.0,7.0,72,0.00,,,0.03,Wunderground v.1.15,2013-01-30 20:10:00,
2013-01-30 15:15:00,69.1,59.3,29.63,South,180,6.0,8.0,71,0.00,,,0.03,Wunderground v.1.15,2013-01-30 20:15:00,
2013-01-30 15:20:00,69.3,59.1,29.63,SSE,156,7.0,7.0,70,0.00,,,0.03,Wunderground v.1.15,2013-01-30 20:20:00,
2013-01-30 15:30:00,69.4,58.4,29.62,SSW,198,6.0,6.0,68,0.00,,,0.03,Wunderground v.1.15,2013-01-30 20:30:00,
2013-01-30 15:35:00,69.6,58.6,29.61,SSE,166,7.0,10.0,68,0.00,,,0.03,Wunderground v.1.15,2013-01-30 20:35:00,
2013-01-30 15:40:00,70.0,58.5,29.61,SSW,192,7.0,7.0,67,0.00,,,0.03,Wunderground v.1.15,2013-01-30 20:40:00,
2013-01-30 15:45:00,70.3,58.4,29.61,SSE,159,6.0,7.0,66,0.00,,,0.03,Wunderground v.1.15,2013-01-30 20:45:00,
2013-01-30 15:50:00,70.6,58.3,29.60,SE,140,6.0,6.0,65,0.00,,,0.03,Wunderground v.1.15,2013-01-30 20:50:00,
2013-01-30 15:55:00,70.6,58.3,29.60,SSE,147,6.0,9.0,65,0.00,,,0.03,Wunderground v.1.15,2013-01-30 20:55:00,
2013-01-30 16:00:00,70.5,58.2,29.60,SE,142,7.0,8.0,65,0.00,,,0.03,Wunderground v.1.15,2013-01-30 21:00:00,
2013-01-30 16:05:00,70.5,58.2,29.59,SSW,196,8.0,11.0,65,0.00,,,0.03,Wunderground v.1.15,2013-01-30 21:05:00,
2013-01-30 16:10:00,70.5,57.7,29.59,South,186,8.0,8.0,64,0.00,,,0.03,Wunderground v.1.15,2013-01-30 21:10:00,
2013-01-30 16:15:00,70.5,58.2,29.59,South,189,7.0,8.0,65,0.00,,,0.03,Wunderground v.1.15,2013-01-30 21:15:00,
2013-01-30 16:20:00,70.5,57.7,29.58,South,185,6.0,6.0,64,0.00,,,0.03,Wunderground v.1.15,2013-01-30 21:20:00,
2013-01-30 16:25:00,70.6,57.4,29.58,SSW,201,8.0,10.0,63,0.00,,,0.03,Wunderground v.1.15,2013-01-30 21:25:00,
2013-01-30 16:30:00,70.6,57.4,29.58,SSE,168,9.0,9.0,63,0.00,,,0.03,Wunderground v.1.15,2013-01-30 21:30:00,
2013-01-30 16:40:00,70.6,57.4,29.58,SSE,158,8.0,8.0,63,0.00,,,0.03,Wunderground v.1.15,2013-01-30 21:40:00,
2013-01-30 16:45:00,70.5,57.3,29.57,SSW,199,8.0,8.0,63,0.00,,,0.03,Wunderground v.1.15,2013-01-30 21:45:00,
2013-01-30 16:50:00,70.5,57.3,29.57,SSW,196,6.0,6.0,63,0.00,,,0.03,Wunderground v.1.15,2013-01-30 21:50:00,
2013-01-30 16:55:00,70.5,57.3,29.58,SSW,194,6.0,6.0,63,0.00,,,0.03,Wunderground v.1.15,2013-01-30 21:55:00,
2013-01-30 17:00:00,70.3,57.1,29.57,South,176,6.0,6.0,63,0.00,,,0.03,Wunderground v.1.15,2013-01-30 22:00:00,
2013-01-30 17:10:00,70.5,56.9,29.56,SSE,149,6.0,9.0,62,0.00,,,0.03,Wunderground v.1.15,2013-01-30 22:10:00,
2013-01-30 17:15:00,70.3,56.7,29.56,SSE,163,7.0,9.0,62,0.00,,,0.03,Wunderground v.1.15,2013-01-30 22:15:00,
2013-01-30 17:20:00,70.3,57.1,29.55,SSW,196,7.0,9.0,63,0.00,,,0.03,Wunderground v.1.15,2013-01-30 22:20:00,
2013-01-30 17:25:00,70.1,56.9,29.55,SSE,160,6.0,14.0,63,0.00,,,0.03,Wunderground v.1.15,2013-01-30 22:25:00,
2013-01-30 17:30:00,70.3,57.1,29.55,SSE,166,8.0,13.0,63,0.00,,,0.03,Wunderground v.1.15,2013-01-30 22:30:00,
2013-01-30 17:35:00,70.3,57.1,29.55,SSW,198,9.0,13.0,63,0.00,,,0.03,Wunderground v.1.15,2013-01-30 22:35:00,
2013-01-30 17:40:00,70.1,56.5,29.54,SSE,163,9.0,9.0,62,0.00,,,0.03,Wunderground v.1.15,2013-01-30 22:40:00,
2013-01-30 17:50:00,70.0,56.8,29.54,SSE,163,7.0,7.0,63,0.00,,,0.03,Wunderground v.1.15,2013-01-30 22:50:00,
2013-01-30 17:55:00,69.8,57.1,29.53,SE,143,6.0,14.0,64,0.00,,,0.03,Wunderground v.1.15,2013-01-30 22:55:00,
2013-01-30 18:00:00,69.8,56.6,29.52,SSE,147,8.0,9.0,63,0.00,,,0.03,Wunderground v.1.15,2013-01-30 23:00:00,
2013-01-30 18:10:00,69.4,56.3,29.52,SE,145,7.0,7.0,63,0.00,,,0.03,Wunderground v.1.15,2013-01-30 23:10:00,
2013-01-30 18:15:00,69.3,56.6,29.51,SE,135,6.0,19.0,64,0.00,,,0.03,Wunderground v.1.15,2013-01-30 23:15:00,
2013-01-30 18:20:00,69.1,56.4,29.51,South,173,7.0,7.0,64,0.00,,,0.03,Wunderground v.1.15,2013-01-30 23:20:00,
2013-01-30 18:25:00,69.1,56.4,29.51,SSE,153,8.0,12.0,64,0.00,,,0.03,Wunderground v.1.15,2013-01-30 23:25:00,
2013-01-30 18:30:00,68.9,56.2,29.50,East,84,8.0,9.0,64,0.00,,,0.03,Wunderground v.1.15,2013-01-30 23:30:00,
2013-01-30 18:35:00,68.6,55.9,29.50,SSE,165,7.0,11.0,64,0.00,,,0.03,Wunderground v.1.15,2013-01-30 23:35:00,
2013-01-30 18:40:00,68.6,55.9,29.50,SE,124,8.0,14.0,64,0.00,,,0.03,Wunderground v.1.15,2013-01-30 23:40:00,
2013-01-30 18:45:00,68.6,55.9,29.49,South,178,9.0,14.0,64,0.00,,,0.03,Wunderground v.1.15,2013-01-30 23:45:00,
2013-01-30 18:50:00,68.4,55.7,29.49,SSE,147,8.0,8.0,64,0.00,,,0.03,Wunderground v.1.15,2013-01-30 23:50:00,
2013-01-30 18:55:00,68.3,56.1,29.48,SE,146,7.0,8.0,65,0.00,,,0.03,Wunderground v.1.15,2013-01-30 23:55:00,
2013-01-30 19:00:00,68.3,56.1,29.49,SSW,198,8.0,8.0,65,0.00,,,0.03,Wunderground v.1.15,2013-01-31 00:00:00,
2013-01-30 19:05:00,68.3,56.1,29.48,South,175,8.0,13.0,65,0.00,,,0.03,Wunderground v.1.15,2013-01-31 00:05:00,
2013-01-30 19:10:00,68.3,55.6,29.47,South,171,9.0,9.0,64,0.00,,,0.03,Wunderground v.1.15,2013-01-31 00:10:00,
2013-01-30 19:15:00,68.3,56.1,29.47,SSE,152,9.0,9.0,65,0.00,,,0.03,Wunderground v.1.15,2013-01-31 00:15:00,
2013-01-30 19:20:00,68.1,55.9,29.47,SE,142,7.0,7.0,65,0.00,,,0.03,Wunderground v.1.15,2013-01-31 00:20:00,
2013-01-30 19:25:00,68.1,55.9,29.47,SSE,148,9.0,10.0,65,0.00,,,0.03,Wunderground v.1.15,2013-01-31 00:25:00,
2013-01-30 19:30:00,68.1,55.9,29.47,SSE,160,9.0,9.0,65,0.00,,,0.03,Wunderground v.1.15,2013-01-31 00:30:00,
2013-01-30 19:35:00,68.1,55.9,29.46,SSE,157,8.0,9.0,65,0.00,,,0.03,Wunderground v.1.15,2013-01-31 00:35:00,
2013-01-30 19:40:00,67.8,56.0,29.46,SSE,157,8.0,10.0,66,0.00,,,0.03,Wunderground v.1.15,2013-01-31 00:40:00,
2013-01-30 19:45:00,67.8,56.4,29.46,SE,145,9.0,10.0,67,0.00,,,0.03,Wunderground v.1.15,2013-01-31 00:45:00,
2013-01-30 19:50:00,67.4,56.5,29.45,South,169,9.0,9.0,68,0.00,,,0.03,Wunderground v.1.15,2013-01-31 00:50:00,
2013-01-30 20:00:00,67.3,56.8,29.45,SE,145,8.0,8.0,69,0.00,,,0.03,Wunderground v.1.15,2013-01-31 01:00:00,
2013-01-30 20:10:00,67.4,56.9,29.44,SSE,158,8.0,8.0,69,0.00,,,0.03,Wunderground v.1.15,2013-01-31 01:10:00,
2013-01-30 20:15:00,67.8,57.3,29.43,SSE,162,9.0,9.0,69,0.00,,,0.03,Wunderground v.1.15,2013-01-31 01:15:00,
2013-01-30 20:20:00,67.8,57.3,29.42,South,180,10.0,10.0,69,0.00,,,0.03,Wunderground v.1.15,2013-01-31 01:20:00,
2013-01-30 20:25:00,67.8,57.7,29.42,SE,141,9.0,14.0,70,0.00,,,0.03,Wunderground v.1.15,2013-01-31 01:25:00,
2013-01-30 20:30:00,67.8,57.7,29.42,South,171,9.0,10.0,70,0.00,,,0.03,Wunderground v.1.15,2013-01-31 01:30:00,
2013-01-30 20:35:00,67.8,57.7,29.41,SSE,165,10.0,10.0,70,0.00,,,0.03,Wunderground v.1.15,2013-01-31 01:35:00,
2013-01-30 20:40:00,67.6,57.5,29.41,ESE,115,8.0,8.0,70,0.00,,,0.03,Wunderground v.1.15,2013-01-31 01:40:00,
2013-01-30 20:50:00,67.8,56.4,29.40,South,188,11.0,11.0,67,0.00,,,0.03,Wunderground v.1.15,2013-01-31 01:50:00,
2013-01-30 20:55:00,67.9,57.8,29.40,SSE,163,11.0,11.0,70,0.00,,,0.03,Wunderground v.1.15,2013-01-31 01:55:00,
2013-01-30 21:00:00,67.8,58.1,29.39,South,188,11.0,11.0,71,0.00,,,0.03,Wunderground v.1.15,2013-01-31 02:00:00,
2013-01-30 21:05:00,67.6,59.0,29.39,SSE,162,11.0,21.0,74,0.00,,,0.03,Wunderground v.1.15,2013-01-31 02:05:00,
2013-01-30 21:10:00,66.6,59.5,29.39,SSE,168,9.0,9.0,78,0.00,,,0.04,Wunderground v.1.15,2013-01-31 02:10:00,
2013-01-30 21:20:00,65.9,59.2,29.38,South,176,10.0,10.0,79,0.00,,,0.04,Wunderground v.1.15,2013-01-31 02:20:00,
2013-01-30 21:25:00,65.6,59.6,29.38,SW,224,10.0,10.0,81,0.00,,,0.05,Wunderground v.1.15,2013-01-31 02:25:00,
2013-01-30 21:30:00,65.1,60.1,29.45,West,265,9.0,10.0,84,1.37,,,0.09,Wunderground v.1.15,2013-01-31 02:30:00,
2013-01-30 21:35:00,63.8,60.5,29.42,WSW,242,8.0,10.0,89,0.74,,,0.27,Wunderground v.1.15,2013-01-31 02:35:00,
2013-01-30 21:40:00,63.0,60.6,29.42,SW,219,7.0,7.0,92,0.15,,,0.29,Wunderground v.1.15,2013-01-31 02:40:00,
2013-01-30 21:50:00,62.4,60.3,29.40,SSW,200,6.0,6.0,93,0.09,,,0.30,Wunderground v.1.15,2013-01-31 02:50:00,
2013-01-30 21:55:00,62.4,60.3,29.41,South,183,6.0,8.0,93,0.09,,,0.31,Wunderground v.1.15,2013-01-31 02:55:00,
2013-01-30 22:00:00,62.4,60.3,29.42,SW,234,6.0,6.0,93,0.17,,,0.32,Wunderground v.1.15,2013-01-31 03:00:00,
2013-01-30 22:05:00,62.4,60.7,29.41,SSW,194,6.0,7.0,94,0.07,,,0.32,Wunderground v.1.15,2013-01-31 03:05:00,
2013-01-30 22:10:00,62.4,60.7,29.41,SW,219,5.0,5.0,94,0.05,,,0.32,Wunderground v.1.15,2013-01-31 03:10:00,
2013-01-30 22:15:00,62.2,60.5,29.42,SW,217,4.0,5.0,94,0.20,,,0.34,Wunderground v.1.15,2013-01-31 03:15:00,
2013-01-30 22:20:00,62.2,60.5,29.44,SW,228,5.0,8.0,94,0.69,,,0.38,Wunderground v.1.15,2013-01-31 03:20:00,
2013-01-30 22:25:00,61.7,59.7,29.42,SW,226,7.0,11.0,93,0.22,,,0.40,Wunderground v.1.15,2013-01-31 03:25:00,
2013-01-30 22:30:00,60.9,57.9,29.43,West,267,8.0,8.0,90,0.11,,,0.41,Wunderground v.1.15,2013-01-31 03:30:00,
2013-01-30 22:35:00,60.5,57.6,29.43,SW,236,8.0,9.0,90,0.09,,,0.41,Wunderground v.1.15,2013-01-31 03:35:00,
2013-01-30 22:40:00,60.1,57.2,29.44,SSW,213,8.0,8.0,90,0.09,,,0.42,Wunderground v.1.15,2013-01-31 03:40:00,
2013-01-30 22:45:00,59.8,56.9,29.44,SW,227,8.0,10.0,90,0.06,,,0.42,Wunderground v.1.15,2013-01-31 03:45:00,
2013-01-30 22:50:00,59.7,57.1,29.45,SW,221,7.0,7.0,91,0.04,,,0.42,Wunderground v.1.15,2013-01-31 03:50:00,
2013-01-30 22:55:00,59.5,56.9,29.44,WSW,240,7.0,7.0,91,0.00,,,0.43,Wunderground v.1.15,2013-01-31 03:55:00,
2013-01-30 23:00:00,59.2,56.3,29.44,SW,225,7.0,11.0,90,0.00,,,0.43,Wunderground v.1.15,2013-01-31 04:00:00,
2013-01-30 23:10:00,58.7,54.8,29.43,SW,217,8.0,8.0,87,0.00,,,0.43,Wunderground v.1.15,2013-01-31 04:10:00,
2013-01-30 23:15:00,58.4,56.1,29.43,SSW,200,7.0,8.0,92,0.00,,,0.43,Wunderground v.1.15,2013-01-31 04:15:00,
2013-01-30 23:20:00,58.1,54.6,29.43,SSW,211,6.0,11.0,88,0.00,,,0.43,Wunderground v.1.15,2013-01-31 04:20:00,
2013-01-30 23:25:00,57.8,54.0,29.43,SSW,206,6.0,11.0,87,0.00,,,0.43,Wunderground v.1.15,2013-01-31 04:25:00,
2013-01-30 23:30:00,57.5,53.0,29.43,SSW,201,8.0,8.0,85,0.00,,,0.43,Wunderground v.1.15,2013-01-31 04:30:00,
2013-01-30 23:35:00,57.4,52.9,29.44,WSW,250,7.0,10.0,85,0.00,,,0.43,Wunderground v.1.15,2013-01-31 04:35:00,
2013-01-30 23:40:00,57.1,53.0,29.44,SW,226,7.0,10.0,86,0.00,,,0.43,Wunderground v.1.15,2013-01-31 04:40:00,
2013-01-30 23:45:00,56.8,52.7,29.43,SW,229,7.0,10.0,86,0.00,,,0.44,Wunderground v.1.15,2013-01-31 04:45:00,
2013-01-30 23:50:00,56.3,52.5,29.43,SW,220,8.0,8.0,87,0.11,,,0.45,Wunderground v.1.15,2013-01-31 04:50:00,
2013-01-30 23:55:00,55.8,52.3,29.43,SW,235,7.0,8.0,88,0.09,,,0.46,Wunderground v.1.15,2013-01-31 04:55:00,